Volver al catálogo

STARLINK-32384

ActivoComunicacionesVLEO
NORAD 62146·PAYLOAD·🇺🇸 United States

Lanzado Nov 30, 2024 desde Cape Canaveral Space Force Station

Loading…

Próximos Pases (próximas 24 horas)

TLE

ActualizadoSource: CelesTrak SupGP

Época: Sep 15, 2026, 03:35 UTC

1 62146C 24224H   26258.14979167  .00011500  00000+0  41672-3 0  2587
2 62146  43.0028 168.2540 0001388 278.8251  99.3135 15.27558703    11

Sigue STARLINK-32384 en tiempo real con AllMySat

Download on the App Store